Location: Madrid
(40.4000°N, 3.6830°W)
Time: 22:52:53
(UTC+02:00)

ISS - Pass Details

Date: 17 July 2017
Orbit: 400 x 408 km, 51.6° (Epoch: 24 July)

Event Time Altitude Azimuth Distance (km) Brightness Sun altitude
Rises 05:25:58 0° 307° (NW) 2,315 -0.1 -14.9°
Reaches altitude 10° 05:29:10 10° 341° (NNW) 1,457 -0.7 -14.5°
Maximum altitude 05:30:28 12° 4° (N) 1,352 -0.5 -14.3°
Drops below altitude 10° 05:31:46 10° 28° (NNE) 1,459 0.2 -14.1°
Sets 05:34:58 0° 62° (ENE) 2,320 1.6 -13.7°
